Welcome to the New NWS' Forecast!
Most changes are behind the scenes, but click here for differences you might notice.

Regional Weather Roundup (RWR)

Issued by Gray - Portland, ME (GYX)

                            
000
ASUS41 KGYX 220305
RWRGYX
WEATHER ROUNDUP FOR MAINE AND NEW HAMPSHIRE
NATIONAL WEATHER SERVICE GRAY ME
1100 PM EDT SUN OCT 21 2018

MEZ002-005-006-010-012-015-018-020-021-024-026-027-029-220400-
MAINE
  
CITY           SKY/WX    TMP DP  RH WIND       PRES   REMARKS
PORTLAND       FAIR      34  20  56 W7        30.00R                  
SANFORD        FAIR      32  21  64 W7        30.02R                  
BAR HARBOR     FAIR      34  18  52 NW3       29.92R                  
WISCASSET      FAIR      32  23  69 CALM      29.98R                  
ROCKLAND       FAIR      28  23  81 CALM      29.95R                  
FRYEBURG       FAIR      35  20  54 W8G17     29.99R                  
LEWISTONAUBURN MOCLDY    35  19  52 CALM      29.98R                  
AUGUSTA        CLOUDY    35  22  58 NW7       29.95R                  
WATERVILLE     MOCLDY    31  21  66 W6        29.91R                  
BANGOR         FAIR      33  17  51 W6        29.91R                  
GREENVILLE       N/A     29  17  61 NW10G24   29.82R WCI  20          
MILLINOCKET    FAIR      32  16  51 NW9       29.89R                  
HOULTON        CLOUDY    32  17  54 NW9       29.83R                  
PRESQUE ISLE   CLOUDY    31  18  58 NW9G18    29.82S                  
FRENCHVILLE    FAIR      29  14  53 NW17G24   29.77R WCI  17          
CARIBOU        CLOUDY    31  16  54 NW9       29.80R                  
$$

NHZ002-005-008-009-011-012-014-220400-
NEW HAMPSHIRE
  
CITY           SKY/WX    TMP DP  RH WIND       PRES   REMARKS
PORTSMOUTH     MOCLDY    37  21  51 W13G21    30.02R                  
ROCHESTER      MOCLDY    37  22  54 NW9       30.01R                  
NASHUA         FAIR      34  21  59 NW8       30.07R                  
MANCHESTER     FAIR      36  18  48 W8        30.05R                  
CONCORD        CLOUDY    36  18  48 NW10G20   30.05R                  
LACONIA        CLOUDY    35  21  56 W7        30.03R                  
PLYMOUTH       CLOUDY    35  23  61 W10G20    30.02R                  
BERLIN         FLURRIES  33  22  63 VRB7      29.96R                  
WHITEFIELD     FLURRIES  33  22  63 VRB7      29.99R                  
JAFFREY        CLOUDY    34  19  54 CALM      30.05R                  
KEENE          CLOUDY    35  19  52 CALM      30.08R                  
LEBANON        CLOUDY    36  16  44 NW5       30.05R                  
MT WASHINGTON  SNOW       9   9 100 W60G69      N/A  VSB 1/16WCI -21  
$$

VTZ005-007-008-220400-
VERMONT
  
CITY           SKY/WX    TMP DP  RH WIND       PRES   REMARKS
ST JOHNSBURY     N/A     34  22  61 MISG      30.01R                  
MONTPELIER     CLOUDY    31  19  61 NW10      30.05R                  
BURLINGTON     FAIR      37  17  44 NW8       30.07R                  
$$

MAZ007-012-024-CTZ003-RIZ002-NYZ038-NYZ072-220400-
SOUTHERN NEW ENGLAND AND NY
  
CITY           SKY/WX    TMP DP  RH WIND       PRES   REMARKS
BOSTON         FAIR      39  21  48 W10       30.08R                  
WORCESTER      FAIR      30  19  63 W6        30.05R                  
NANTUCKET      FAIR      40  21  46 NW21G32   30.06R                  
PROVIDENCE     FAIR      34  25  69 VRB5      30.10R                  
HARTFORD       FAIR      36  22  56 CALM      30.10R                  
ALBANY         MOCLDY    38  26  62 CALM      30.12R                  
NEW YORK CITY  FAIR      43  24  47 W13       30.16R                  
$$

ANZ081-ANZ082-ANZ150-NHZ014-MEZ023>029-220400-
COASTAL MARINE OBSERVATIONS
  
STATION/POSITION TIME  TEMP    WIND        PRES    WAVE
                       AIR SEA DIR/SP/G            HT/PER
                 (UTC) (F)     (DEG/KT/KT) (MB)    (FT/S)
MOUNT DESERT ROC 0300   39     300/ 23/ 26 1012.9R
MATINICUS ROCK   0200   40     330/ 30/ 33 1012.9R
ISLE OF SHOALS   0200   39     290/ 22/ 25 1015.5R
JEFFREYS LEDGE   0206      55                N/A     6/ 6
$$

.............KEY..............
   WCI - WIND CHILL
   TC  - TEMPERATURE IN CELSIUS
   VSB - VISIBILITY IN MILES
   HX  - HEAT INDEX
   FAIR- INDICATES FEW OR NO CLOUDS BELOW 12,000 FT, WITH NO 
         SIGNIFICANT WEATHER AND/OR OBSTRUCTIONS TO VISIBILITY.